Theta_e
337 334 325 324 347 353 353 352 351 352 353 351 348 347 346 348 348 347 348 347 349 351 348 349 348 346 342 341 338 339 338 338 337 338 336 339 342 343 343 344 341 341 339
333 342 336 332 346 343 348 352 353 350 350 351 349 346 344 347 347 346 346 348 347 348 347 346 345 344 343 341 340 339 336 328 329 325 335 329 334 337 340 341 336 334 334
328 333 342 345 348 346 348 348 350 351 352 352 351 352 351 348 347 345 343 346 348 347 347 345 347 345 342 340 340 337 331 328 329 329 332 328 323 327 332 334 333 333 331
328 327 329 334 340 342 349 349 350 350 350 351 347 345 344 341 342 345 347 349 350 347 348 344 339 342 342 335 337 336 333 330 327 335 340 338 333 327 323 327 331 332 332
325 325 327 329 333 336 336 347 350 350 350 349 347 345 341 343 342 343 342 343 344 342 347 344 340 339 340 338 337 335 335 338 336 334 333 332 331 329 325 323 324 328 329
321 326 328 330 330 333 336 341 345 343 344 348 347 345 344 344 341 338 336 337 335 336 337 337 336 336 334 333 330 330 331 332 334 332 331 331 330 329 328 326 327 327 330
315 323 323 324 325 329 339 343 342 341 341 341 343 340 339 337 332 333 334 331 329 330 328 329 328 327 327 326 322 322 322 318 322 321 321 322 323 325 324 323 321 321 324
310 311 316 315 322 337 340 339 338 335 335 335 336 336 334 331 330 329 324 322 325 323 324 323 321 322 321 321 317 316 317 313 315 316 316 314 315 317 315 315 314 312 313
307 309 312 326 334 335 337 337 334 333 331 329 327 326 325 324 323 322 321 320 319 318 316 316 314 314 315 315 313 311 310 311 310 311 311 310 310 310 310 311 310 309 304
309 323 329 330 331 332 332 332 331 328 325 323 321 319 319 319 318 316 314 314 312 310 310 310 309 308 311 311 309 308 307 307 308 310 308 309 310 308 310 309 309 309 306
323 325 327 328 329 329 326 323 320 318 317 318 317 316 316 317 315 312 311 310 309 309 309 310 310 310 307 305 304 304 305 305 305 306 308 308 307 306 305 305 305 305 305
323 324 325 324 324 323 320 317 316 316 316 316 316 314 313 312 310 309 308 308 308 309 309 310 310 309 304 303 302 302 303 304 303 306 305 304 306 302 302 300 300 300 301
321 321 321 319 316 314 314 314 314 314 313 313 311 309 306 306 306 307 308 309 308 308 308 309 308 304 303 302 302 302 303 303 304 304 304 303 302 299 299 298 298 299 301
319 317 316 313 312 312 312 312 310 310 310 308 305 306 305 305 306 307 307 308 308 307 307 307 306 303 302 302 301 301 300 302 304 305 305 304 305 305 302 300 298 299 298
316 313 310 310 310 310 309 309 309 309 308 306 305 304 304 305 306 307 307 307 306 306 307 306 305 303 302 301 299 299 299 299 302 303 304 304 307 310 309 307 304 302 300
311 311 310 309 308 307 307 307 306 305 304 303 303 306 306 308 307 307 306 306 305 304 305 304 304 302 303 300 301 301 297 299 301 301 302 303 306 307 306 305 306 305 302
310 310 308 308 308 309 309 305 304 304 303 303 305 307 307 307 306 306 304 303 302 302 302 302 302 301 300 299 298 301 299 300 300 300 301 302 305 305 302 303 304 304 304
310 309 309 309 309 309 307 305 304 304 304 304 305 306 306 305 304 303 301 300 301 300 301 301 302 301 300 297 297 298 298 298 299 299 299 300 304 303 300 300 301 301 302
311 311 311 309 308 306 306 304 302 303 304 304 305 305 305 303 302 300 299 299 300 299 299 300 301 302 295 296 296 296 297 296 296 298 301 304 303 298 297 299 300 301 302
310 308 307 307 306 305 303 302 301 301 302 304 305 305 304 302 300 299 298 299 299 299 301 302 305 303 297 296 296 296 295 297 297 298 301 302 299 296 296 298 300 298 300
306 305 304 303 304 304 303 301 301 300 304 305 305 303 302 301 299 299 299 300 299 299 300 304 302 302 300 297 295 295 297 297 298 300 302 303 297 295 295 295 300 297 299
303 302 301 300 302 304 302 300 300 303 304 304 303 302 299 302 302 299 301 299 298 298 296 296 296 298 299 296 295 294 294 297 299 300 301 302 296 295 295 297 295 295 299
302 301 300 299 301 303 303 299 300 304 304 302 300 300 299 300 300 302 298 299 295 295 295 294 292 293 296 295 294 293 293 296 297 300 299 297 296 296 297 296 296 297 300
302 301 301 301 300 303 303 301 303 304 302 300 299 299 297 297 298 299 298 295 293 293 293 293 290 291 292 292 292 291 291 295 296 297 299 298 297 297 297 299 299 300 301
303 303 301 301 301 301 301 302 303 302 300 299 298 297 297 297 296 295 295 293 289 292 289 291 293 292 289 291 291 290 290 292 293 296 296 296 298 297 298 298 299 300 300
303 301 300 300 301 301 301 301 302 300 298 297 297 295 295 295 296 298 294 293 292 292 291 291 291 292 291 290 291 291 292 292 293 294 294 295 295 294 295 294 295 296 298
Wind_Speed
12 16 21 6 15 17 9 8 10 8 6 3 4 4 3 3 2 3 5 5 3 4 5 4 4 4 4 5 4 1 1 4 14 7 5 6 6 9 8 7 5 5 3
13 28 26 30 15 11 8 9 5 6 5 3 3 3 3 3 4 4 4 7 7 6 5 4 3 4 3 5 5 6 3 2 6 6 13 6 4 7 11 7 5 6 5
12 15 16 15 12 15 9 6 7 7 7 5 2 2 3 2 2 1 3 4 6 4 2 2 6 7 4 3 3 2 2 2 3 5 7 3 5 2 4 6 5 6 4
12 10 14 13 14 8 7 7 6 6 4 5 2 3 2 1 2 2 2 5 3 5 4 5 4 9 5 3 3 2 3 3 3 4 9 11 8 7 6 3 4 5 6
14 10 13 13 11 12 10 9 9 7 6 5 4 2 1 1 2 4 6 8 8 10 9 9 6 6 4 4 5 5 4 3 4 6 4 4 4 5 5 11 5 4 4
12 14 13 11 10 10 10 9 10 7 8 6 6 6 6 5 6 5 5 6 5 4 6 7 5 7 5 6 6 6 6 6 4 4 5 3 3 6 5 5 7 7 5
12 14 11 8 8 8 10 10 10 8 10 11 11 11 12 12 10 7 6 6 4 4 6 6 7 5 6 6 6 6 7 7 6 5 3 2 4 5 4 5 7 7 7
9 11 16 10 9 15 15 13 16 14 15 15 14 12 13 8 7 10 7 7 5 4 6 6 7 7 7 7 7 5 6 7 7 8 7 4 6 6 5 4 7 10 6
9 9 7 17 19 16 18 19 17 15 14 14 12 12 11 13 11 11 10 8 10 9 11 11 10 10 9 8 7 5 9 8 8 7 8 6 5 6 6 5 3 5 9
11 18 19 20 19 18 17 17 16 15 12 14 12 12 11 12 12 10 10 10 8 8 8 7 7 7 7 10 10 8 9 9 8 7 8 8 7 7 6 7 7 7 6
20 19 20 17 19 18 18 16 15 15 14 13 11 11 10 12 10 9 8 7 7 7 7 7 7 8 11 10 10 10 11 10 9 8 9 10 9 7 7 7 7 7 7
22 21 20 18 17 16 15 15 14 14 12 10 11 10 10 9 8 7 7 7 7 7 7 7 8 12 10 9 9 8 8 9 9 9 7 6 7 5 6 5 7 5 6
22 19 18 17 17 16 14 13 12 12 11 11 10 9 8 8 8 7 7 7 7 7 7 7 7 9 8 8 7 6 7 7 6 7 7 7 6 6 4 4 4 4 5
21 19 17 15 15 14 13 13 13 11 11 9 8 8 7 7 7 7 6 7 6 7 7 7 9 7 7 6 5 5 6 7 8 7 6 6 8 10 6 6 6 6 6
20 18 17 15 14 13 12 11 8 8 7 7 7 7 6 6 5 6 7 7 7 7 6 7 6 5 4 3 4 6 6 7 6 5 6 7 13 18 14 9 10 10 10
20 20 18 15 14 13 11 11 9 8 9 8 7 7 7 7 7 7 7 6 6 6 5 6 5 3 2 6 9 8 6 7 7 8 9 7 12 13 16 17 19 15 12
20 18 16 13 11 8 8 8 8 8 7 7 6 6 7 7 7 7 6 6 6 6 7 6 5 5 2 7 11 15 7 8 8 7 8 9 9 10 14 17 19 16 17
20 17 14 9 8 8 8 8 8 7 8 8 7 7 7 7 6 6 6 6 5 5 4 6 5 5 7 14 16 16 8 7 9 8 8 7 9 13 14 13 13 15 14
17 14 9 8 8 8 8 8 8 8 8 7 6 6 6 7 6 6 6 4 4 5 4 3 5 7 7 12 14 12 7 8 8 8 9 8 12 16 16 12 13 14 16
17 15 13 11 11 8 9 10 8 7 7 7 6 6 6 7 6 4 3 2 3 4 5 6 6 9 5 11 14 11 4 9 8 8 9 10 12 15 16 11 10 13 14
17 16 13 9 8 8 10 8 7 7 6 7 7 6 6 6 5 2 2 4 4 6 6 7 7 8 6 10 18 16 8 8 7 7 8 9 16 17 16 15 11 13 14
17 15 11 7 6 8 9 8 7 5 7 7 6 6 6 2 3 4 3 3 6 6 7 7 6 6 6 15 15 18 16 12 6 7 7 8 13 15 15 13 17 18 15
14 12 8 7 7 8 7 7 4 7 7 6 5 5 4 5 4 4 5 5 6 5 5 5 5 5 5 6 13 14 16 13 7 7 8 12 13 12 8 12 13 12 9
12 10 9 8 8 6 8 7 6 6 6 4 4 4 5 4 5 5 5 5 5 5 4 5 4 4 5 6 7 7 7 9 7 7 6 8 9 8 8 8 8 8 9
8 11 9 8 9 8 7 6 6 5 4 3 5 6 4 4 4 6 4 6 4 4 3 4 4 5 6 8 12 8 5 6 7 7 4 5 9 10 11 11 12 10 11
9 9 7 8 8 8 7 7 6 7 7 6 5 4 3 3 3 5 6 10 8 6 9 8 6 3 6 14 14 11 8 13 14 5 5 8 9 10 11 11 12 12 14
Wind_Direction
144 109 119 292 299 157 116 118 125 152 142 144 145 145 177 202 188 157 154 162 167 200 207 218 237 257 268 252 263 316 346 7 355 325 314 303 300 306 318 271 250 248 263
125 153 155 177 137 325 286 121 142 141 154 138 157 145 147 213 187 187 190 194 203 208 216 225 253 259 287 313 344 31 17 40 41 358 303 328 322 273 263 278 263 259 253
138 135 134 139 141 166 185 167 168 153 142 148 141 84 85 44 98 192 221 226 200 197 274 284 21 339 329 343 63 142 124 311 256 206 268 299 249 319 240 261 273 271 271
143 131 127 131 144 153 157 163 159 150 155 159 118 97 98 60 264 34 40 28 55 61 30 66 32 246 277 305 308 150 228 206 285 271 241 237 250 271 299 274 280 268 268
152 139 139 148 156 153 162 156 146 156 167 155 127 128 87 309 8 33 53 69 57 46 47 53 42 37 2 328 341 334 333 308 285 261 310 296 283 255 272 285 291 308 274
145 149 159 153 166 164 157 137 134 137 115 130 125 106 78 49 42 33 62 59 37 32 30 54 39 50 22 23 10 358 359 3 357 349 331 324 324 319 310 302 317 291 273
138 155 149 164 176 155 114 113 105 75 63 60 64 70 66 63 62 45 56 74 60 32 31 30 33 32 28 31 17 24 27 18 12 354 347 356 348 340 326 313 319 311 305
141 149 158 175 154 124 112 88 81 76 76 75 71 67 62 59 49 61 58 52 55 46 38 43 33 26 25 29 24 19 16 4 5 356 4 356 358 8 349 329 332 325 316
135 137 114 73 87 91 90 93 90 85 77 77 75 74 72 72 69 60 52 51 41 35 30 31 31 25 38 28 19 18 20 19 11 11 2 5 350 357 351 351 340 326 318
83 85 86 94 91 88 90 87 86 86 84 80 74 69 65 64 64 56 51 47 40 36 32 28 29 17 26 33 33 20 13 14 2 3 354 1 9 3 6 5 353 348 327
97 92 96 90 95 94 94 92 85 84 78 76 75 72 67 64 60 55 45 44 38 29 24 22 26 35 51 33 32 19 11 2 354 350 2 8 2 4 3 357 345 333 339
100 101 101 104 102 100 94 92 92 88 83 76 72 66 60 55 56 51 38 36 40 27 24 20 21 60 48 35 31 15 359 354 345 353 4 351 354 358 340 342 325 317 315
103 105 106 104 102 102 99 96 90 84 82 75 73 69 61 54 55 46 41 37 34 27 21 25 50 64 53 39 25 6 345 339 343 341 341 333 339 320 298 296 296 305 307
111 110 107 101 96 90 90 86 87 89 87 85 76 74 69 65 57 59 46 39 34 22 24 22 78 74 60 44 14 346 344 339 333 327 327 318 323 331 315 305 291 295 291
113 107 100 98 97 88 76 68 71 77 84 82 81 95 96 90 72 66 51 40 36 20 26 61 61 73 64 29 0 359 338 311 306 310 314 320 331 327 323 326 323 306 301
109 105 100 93 89 90 87 83 79 74 78 71 57 70 73 68 68 64 52 44 30 13 33 71 77 50 43 343 352 346 323 312 315 328 325 328 318 336 4 338 322 310 308
110 105 103 103 104 103 106 107 102 90 88 91 69 70 72 64 58 56 44 25 19 25 25 32 33 22 60 3 3 348 333 334 327 330 352 337 340 17 346 332 319 317 314
107 106 108 110 104 111 110 97 97 92 83 70 66 60 65 66 63 59 38 19 8 32 16 16 11 34 48 33 16 351 339 345 355 345 329 329 354 357 345 330 330 333 330
116 116 111 107 95 92 87 92 84 87 87 83 72 62 78 75 64 50 25 2 28 6 348 335 357 62 44 27 26 10 355 352 343 329 332 350 356 342 343 342 328 336 345
104 100 93 83 77 77 88 82 77 82 86 93 84 65 70 92 76 66 1 341 26 338 333 334 348 98 71 29 24 11 349 357 352 343 346 351 356 341 341 346 333 340 336
98 91 79 77 87 89 89 84 80 79 84 90 87 70 61 107 99 50 20 28 351 349 358 41 27 72 54 27 16 2 3 0 342 343 351 353 350 345 348 346 349 338 319
101 93 87 79 67 100 97 95 90 84 85 75 84 73 37 33 130 103 52 14 10 35 34 30 21 7 19 35 0 352 355 343 340 344 338 338 346 344 341 350 340 339 338
107 103 110 103 72 80 99 95 70 87 89 84 87 108 55 17 37 16 49 62 33 39 34 26 23 350 356 6 353 345 339 336 342 345 330 336 339 332 334 334 334 337 344
125 123 118 110 106 98 88 92 72 80 95 93 77 86 71 47 28 33 72 68 43 39 36 27 10 344 346 350 347 341 333 334 345 346 331 325 316 319 317 342 347 347 350
123 121 123 120 116 95 82 88 81 67 78 69 83 52 58 28 20 62 77 92 51 76 78 33 20 1 350 338 323 326 322 337 323 322 324 341 359 359 1 358 355 354 354
67 83 96 91 94 99 93 73 68 71 52 54 54 40 43 351 350 123 85 61 100 92 90 69 52 358 333 330 338 349 10 10 356 353 347 5 6 3 357 357 350 356 354